TimeCST,TemperatureF,Dew PointF,Humidity,Sea Level PressureIn,VisibilityMPH,Wind Direction,Wind SpeedMPH,Gust SpeedMPH,PrecipitationIn,Events,Conditions,WindDirDegrees,DateUTC
12:53 AM,41.0,32.0,70,30.14,10.0,South,6.9,-,N/A,,Scattered Clouds,170,2012-11-15 06:53:00
1:53 AM,42.1,32.0,67,30.14,10.0,South,5.8,-,N/A,,Overcast,180,2012-11-15 07:53:00
2:53 AM,43.0,30.0,60,30.14,10.0,South,8.1,-,N/A,,Overcast,190,2012-11-15 08:53:00
3:53 AM,43.0,30.0,60,30.12,10.0,SSW,9.2,-,N/A,,Overcast,200,2012-11-15 09:53:00
4:53 AM,43.0,30.0,60,30.13,10.0,SSW,9.2,-,N/A,,Overcast,200,2012-11-15 10:53:00
5:53 AM,41.0,30.0,65,30.14,10.0,SW,5.8,-,N/A,,Overcast,220,2012-11-15 11:53:00
6:53 AM,39.9,30.0,68,30.16,10.0,SW,6.9,-,N/A,,Overcast,220,2012-11-15 12:53:00
7:53 AM,37.9,30.0,73,30.19,10.0,SW,3.5,-,N/A,,Scattered Clouds,230,2012-11-15 13:53:00
8:53 AM,41.0,30.9,67,30.21,10.0,WSW,4.6,-,N/A,,Partly Cloudy,240,2012-11-15 14:53:00
9:53 AM,45.0,30.9,58,30.23,10.0,West,4.6,-,N/A,,Clear,260,2012-11-15 15:53:00
10:53 AM,46.9,33.1,59,30.24,10.0,WNW,6.9,-,N/A,,Clear,300,2012-11-15 16:53:00
11:53 AM,48.9,33.1,54,30.25,10.0,NW,5.8,-,N/A,,Clear,310,2012-11-15 17:53:00
12:53 PM,51.1,30.9,46,30.25,10.0,WNW,11.5,-,N/A,,Clear,300,2012-11-15 18:53:00
1:53 PM,52.0,30.9,45,30.26,10.0,NNW,13.8,-,N/A,,Clear,330,2012-11-15 19:53:00
2:53 PM,50.0,30.9,48,30.28,10.0,NW,11.5,-,N/A,,Clear,310,2012-11-15 20:53:00
3:53 PM,48.0,27.0,44,30.31,10.0,NNW,11.5,-,N/A,,Clear,340,2012-11-15 21:53:00
4:53 PM,44.1,23.0,43,30.34,10.0,NNW,12.7,-,N/A,,Clear,340,2012-11-15 22:53:00
5:53 PM,41.0,18.0,40,30.38,10.0,North,9.2,-,N/A,,Clear,350,2012-11-15 23:53:00
6:53 PM,37.9,16.0,41,30.40,10.0,North,8.1,-,N/A,,Clear,350,2012-11-16 00:53:00
7:53 PM,36.0,15.1,43,30.43,10.0,North,6.9,-,N/A,,Clear,360,2012-11-16 01:53:00
8:53 PM,33.1,12.9,43,30.44,10.0,North,5.8,-,N/A,,Clear,360,2012-11-16 02:53:00
9:53 PM,32.0,12.0,44,30.45,10.0,North,6.9,-,N/A,,Clear,360,2012-11-16 03:53:00
10:53 PM,30.0,10.9,45,30.46,10.0,North,5.8,-,N/A,,Clear,10,2012-11-16 04:53:00
11:53 PM,28.9,10.9,47,30.48,10.0,North,5.8,-,N/A,,Clear,10,2012-11-16 05:53:00